FW5426 Weather Reports


Display with metric or nautical units.
time (UTC)temp
F
wind
direction
speed
MPH
gust
MPH
rain 1hr
in
rain 24hr
in
rain mn
in
humidity
%
barometer
mb
20260905020032 88 267 1.0 3.0 0.00 0.00 0.00 38 1016.8
20260905015531 88 300 0.0 2.0 0.00 0.00 0.00 38 1016.9
20260905015017 88 311 0.0 2.0 0.00 0.00 0.00 38 1016.8
20260905014517 88 304 1.0 3.0 0.00 0.00 0.00 38 1016.8
20260905014306 88 290 1.0 3.0 0.00 0.00 0.00 38 1016.8
20260905013759 88 305 1.0 4.0 0.00 0.00 0.00 38 1016.8
20260905013027 88 318 2.0 6.0 0.00 0.00 0.00 37 1016.7
20260905012526 89 319 2.0 6.0 0.00 0.00 0.00 37 1016.5
20260905012015 89 304 3.0 10.0 0.00 0.00 0.00 37 1016.5
20260905011550 89 312 2.0 7.0 0.00 0.00 0.00 37 1016.7
20260905011518 89 53 3.0 10.0 0.00 0.00 0.00 37 1016.7
20260905010524 89 281 2.0 7.0 0.00 0.00 0.00 36 1016.5
20260905010017 90 290 2.0 6.0 0.00 0.00 0.00 36 1016.4
20260905005512 90 198 3.0 6.0 0.00 0.00 0.00 35 1016.5
20260905005016 91 232 2.0 6.0 0.00 0.00 0.00 35 1016.5
20260905004511 91 146 2.0 6.0 0.00 0.00 0.00 35 1016.4
20260905004012 91 238 1.0 4.0 0.00 0.00 0.00 35 1016.4
20260905003510 91 227 2.0 4.0 0.00 0.00 0.00 35 1016.5
20260905003014 91 304 2.0 5.0 0.00 0.00 0.00 35 1016.5
20260905002804 91 300 4.0 9.0 0.00 0.00 0.00 34 1016.5
20260905002019 91 296 4.0 9.0 0.00 0.00 0.00 34 1016.4
20260905001512 91 167 2.0 8.0 0.00 0.00 0.00 35 1016.4
20260905001010 91 280 1.0 8.0 0.00 0.00 0.00 35 1016.5
20260905000521 91 224 2.0 6.0 0.00 0.00 0.00 35 1016.5
20260905000013 91 224 4.0 9.0 0.00 0.00 0.00 35 1016.3
20260904235519 91 311 4.0 9.0 0.00 0.00 0.00 34 1016.3
20260904235013 91 236 3.0 8.0 0.00 0.00 0.00 35 1016.3
20260904234511 91 36 3.0 9.0 0.00 0.00 0.00 34 1016.2
20260904234020 91 5 4.0 11.0 0.00 0.00 0.00 33 1016.2
20260904233755 91 281 4.0 11.0 0.00 0.00 0.00 33 1016.3
20260904233010 91 309 5.0 9.0 0.00 0.00 0.00 34 1016.2
20260904232508 92 345 4.0 13.0 0.00 0.00 0.00 34 1016.2
20260904232237 92 308 3.0 13.0 0.00 0.00 0.00 34 1016.2
20260904231514 91 155 3.0 9.0 0.00 0.00 0.00 34 1016.2
20260904231231 91 320 3.0 9.0 0.00 0.00 0.00 34 1016.2
20260904230506 92 337 2.0 6.0 0.00 0.00 0.00 33 1016.3
20260904230225 92 263 4.0 11.0 0.00 0.00 0.00 33 1016.4
20260904225504 91 330 5.0 13.0 0.00 0.00 0.00 34 1016.4
20260904225005 91 232 5.0 13.0 0.00 0.00 0.00 34 1016.4
20260904224504 92 198 5.0 12.0 0.00 0.00 0.00 34 1016.3
20260904224005 92 218 5.0 12.0 0.00 0.00 0.00 34 1016.4
20260904223725 92 245 6.0 30.0 0.00 0.00 0.00 34 1016.5
20260904223002 91 308 6.0 30.0 0.00 0.00 0.00 35 1016.5
20260904222502 90 227 5.0 11.0 0.00 0.00 0.00 36 1016.7
20260904222446 90 225 5.0 11.0 0.00 0.00 0.00 36 1016.8
20260904221501 90 320 6.0 13.0 0.00 0.00 0.00 36 1016.7
20260904221001 91 323 6.0 13.0 0.00 0.00 0.00 36 1016.8
20260904220501 91 224 6.0 13.0 0.00 0.00 0.00 36 1016.9
20260904220002 91 202 7.0 13.0 0.00 0.00 0.00 36 1017.0
20260904215501 91 244 8.0 13.0 0.00 0.00 0.00 36 1016.9
20260904215002 91 248 7.0 13.0 0.00 0.00 0.00 35 1016.9
20260904214501 92 218 5.0 12.0 0.00 0.00 0.00 35 1017.0
20260904214001 91 216 6.0 13.0 0.00 0.00 0.00 36 1017.0
20260904213721 91 254 7.0 13.0 0.00 0.00 0.00 34 1017.0
20260904213002 91 263 8.0 14.0 0.00 0.00 0.00 34 1017.1
20260904212501 91 248 7.0 14.0 0.00 0.00 0.00 34 1017.1
20260904212001 91 219 5.0 12.0 0.00 0.00 0.00 34 1017.2
20260904211726 91 173 6.0 13.0 0.00 0.00 0.00 34 1017.3
20260904211002 91 265 6.0 13.0 0.00 0.00 0.00 35 1017.3
20260904210500 91 177 6.0 13.0 0.00 0.00 0.00 35 1017.3
20260904210218 91 89 6.0 13.0 0.00 0.00 0.00 34 1017.6
20260904205501 91 270 6.0 13.0 0.00 0.00 0.00 35 1017.7
20260904205001 91 223 7.0 12.0 0.00 0.00 0.00 34 1017.7
20260904204501 91 214 6.0 12.0 0.00 0.00 0.00 35 1017.8
20260904204217 91 223 3.0 12.0 0.00 0.00 0.00 34 1017.9
20260904203450 90 277 3.0 8.0 0.00 0.00 0.00 35 1018.0
20260904202943 90 255 5.0 11.0 0.00 0.00 0.00 36 1018.0
20260904202439 90 188 6.0 11.0 0.00 0.00 0.00 36 1018.0
20260904201932 89 155 5.0 10.0 0.00 0.00 0.00 37 1018.1
20260904201912 89 205 4.0 9.0 0.00 0.00 0.00 37 1018.2
20260904201159 89 216 4.0 10.0 0.00 0.00 0.00 39 1018.4
20260904200432 88 124 4.0 10.0 0.00 0.00 0.00 40 1018.4
20260904200157 88 129 2.0 10.0 0.00 0.00 0.00 40 1018.3
20260904195651 88 126 5.0 11.0 0.00 0.00 0.00 40 1018.4
20260904195158 88 186 5.0 11.0 0.00 0.00 0.00 40 1018.6
20260904194658 88 197 2.0 11.0 0.00 0.00 0.00 41 1018.7
20260904193930 88 26 3.0 9.0 0.00 0.00 0.00 41 1018.8
20260904193430 88 103 3.0 9.0 0.00 0.00 0.00 41 1018.9
20260904192930 87 117 3.0 9.0 0.00 0.00 0.00 42 1018.9
20260904192430 86 288 3.0 9.0 0.00 0.00 0.00 43 1018.9
20260904191930 86 76 3.0 9.0 0.00 0.00 0.00 43 1019.0
20260904191430 87 68 2.0 9.0 0.00 0.00 0.00 42 1019.2
20260904190929 87 279 2.0 6.0 0.00 0.00 0.00 43 1019.1
20260904190430 86 98 3.0 7.0 0.00 0.00 0.00 43 1019.2
20260904185929 85 126 4.0 8.0 0.00 0.00 0.00 44 1019.2
20260904185429 85 198 4.0 8.0 0.00 0.00 0.00 44 1019.5
20260904184926 85 215 3.0 8.0 0.00 0.00 0.00 44 1019.7
20260904184651 85 132 1.0 6.0 0.00 0.00 0.00 44 1019.7
20260904183922 85 97 2.0 8.0 0.00 0.00 0.00 45 1019.7
20260904183422 84 329 3.0 8.0 0.00 0.00 0.00 46 1019.9
20260904182923 84 313 4.0 9.0 0.00 0.00 0.00 45 1019.9
20260904182422 84 291 3.0 9.0 0.00 0.00 0.00 45 1020.0
20260904181922 85 250 3.0 7.0 0.00 0.00 0.00 45 1020.1
20260904181422 85 243 3.0 7.0 0.00 0.00 0.00 45 1020.2
20260904180922 85 198 3.0 9.0 0.00 0.00 0.00 45 1020.4
20260904180422 85 146 3.0 9.0 0.00 0.00 0.00 46 1020.4
20260904175923 84 163 3.0 7.0 0.00 0.00 0.00 47 1020.4
20260904175423 83 167 3.0 7.0 0.00 0.00 0.00 47 1020.5
20260904174922 83 78 2.0 7.0 0.00 0.00 0.00 47 1020.6
20260904174420 83 157 3.0 9.0 0.00 0.00 0.00 48 1020.6
20260904173918 83 78 3.0 9.0 0.00 0.00 0.00 47 1020.6
20260904173418 83 117 3.0 9.0 0.00 0.00 0.00 48 1020.7
20260904172918 83 157 3.0 9.0 0.00 0.00 0.00 48 1020.7
20260904172418 83 119 2.0 6.0 0.00 0.00 0.00 49 1020.7
20260904172136 82 55 2.0 7.0 0.00 0.00 0.00 50 1020.7
20260904171413 81 110 3.0 7.0 0.00 0.00 0.00 51 1020.8
20260904170912 81 100 2.0 6.0 0.00 0.00 0.00 51 1020.9
20260904170409 81 80 2.0 5.0 0.00 0.00 0.00 51 1020.9
20260904165910 81 104 3.0 6.0 0.00 0.00 0.00 51 1020.9
20260904165410 81 109 3.0 6.0 0.00 0.00 0.00 51 1020.8
20260904164910 80 87 2.0 5.0 0.00 0.00 0.00 52 1020.7
20260904164408 80 101 2.0 4.0 0.00 0.00 0.00 53 1020.8
20260904163909 79 248 2.0 6.0 0.00 0.00 0.00 54 1020.7
20260904163624 78 88 2.0 6.0 0.00 0.00 0.00 55 1020.7
20260904163126 78 57 2.0 4.0 0.00 0.00 0.00 56 1020.7
20260904162406 78 78 2.0 4.0 0.00 0.00 0.00 56 1020.8
20260904161902 78 42 2.0 4.0 0.00 0.00 0.00 56 1020.8
20260904161623 78 26 2.0 5.0 0.00 0.00 0.00 56 1020.7
20260904161122 78 67 1.0 5.0 0.00 0.00 0.00 56 1020.7
20260904160624 78 58 1.0 4.0 0.00 0.00 0.00 56 1020.5
20260904155902 78 338 1.0 4.0 0.00 0.00 0.00 56 1020.6
20260904155402 78 59 1.0 4.0 0.00 0.00 0.00 57 1020.5
20260904154902 77 31 1.0 4.0 0.00 0.00 0.00 57 1020.5
20260904154402 77 37 2.0 4.0 0.00 0.00 0.00 58 1020.5
20260904153902 77 64 1.0 4.0 0.00 0.00 0.00 58 1020.6
20260904153631 77 33 0.0 1.0 0.00 0.00 0.00 58 1020.6
20260904152902 76 33 0.0 3.0 0.00 0.00 0.00 58 1020.6
20260904152401 76 33 1.0 4.0 0.00 0.00 0.00 59 1020.5
20260904152128 76 33 1.0 4.0 0.00 0.00 0.00 60 1020.5
20260904151400 76 355 1.0 3.0 0.00 0.00 0.00 60 1020.4
20260904151124 75 355 2.0 4.0 0.00 0.00 0.00 60 1020.4
20260904150625 75 355 2.0 4.0 0.00 0.00 0.00 61 1020.2
20260904145901 75 355 2.0 4.0 0.00 0.00 0.00 61 1020.4
20260904145401 75 355 1.0 4.0 0.00 0.00 0.00 62 1020.4
20260904144903 75 293 1.0 3.0 0.00 0.00 0.00 63 1020.4
20260904144402 75 301 1.0 2.0 0.00 0.00 0.00 64 1020.5
20260904144127 74 301 1.0 3.0 0.00 0.00 0.00 64 1020.6
20260904143624 74 310 1.0 3.0 0.00 0.00 0.00 65 1020.6
20260904142901 74 109 0.0 2.0 0.00 0.00 0.00 66 1020.6
20260904142402 74 91 1.0 3.0 0.00 0.00 0.00 66 1020.6
20260904141900 73 95 0.0 3.0 0.00 0.00 0.00 66 1020.6
20260904141402 73 92 1.0 4.0 0.00 0.00 0.00 66 1020.5
20260904140901 73 141 3.0 4.0 0.00 0.00 0.00 66 1020.6
20260904140401 73 78 3.0 6.0 0.00 0.00 0.00 67 1020.5
20260904135902 73 106 3.0 6.0 0.00 0.00 0.00 66 1020.4
20260904135402 74 113 3.0 7.0 0.00 0.00 0.00 66 1020.5
20260904134902 74 142 3.0 7.0 0.00 0.00 0.00 65 1020.4
20260904134626 74 121 3.0 5.0 0.00 0.00 0.00 65 1020.2
20260904133901 74 165 3.0 7.0 0.00 0.00 0.00 64 1020.2
20260904133847 74 107 4.0 7.0 0.00 0.00 0.00 64 1020.1
20260904132901 74 113 3.0 7.0 0.00 0.00 0.00 63 1020.0
20260904132401 74 107 2.0 6.0 0.00 0.00 0.00 63 1019.9
20260904131900 74 92 3.0 6.0 0.00 0.00 0.00 63 1019.8
20260904131401 74 103 3.0 6.0 0.00 0.00 0.00 63 1019.7
20260904130900 74 76 3.0 7.0 0.00 0.00 0.00 62 1019.6
20260904130401 74 114 4.0 7.0 0.00 0.00 0.00 62 1019.5
20260904125901 74 126 4.0 9.0 0.00 0.00 0.00 61 1019.6
20260904125401 75 121 4.0 9.0 0.00 0.00 0.00 59 1019.5
20260904124902 75 152 3.0 10.0 0.00 0.00 0.00 58 1019.5
20260904124623 75 127 4.0 10.0 0.00 0.00 0.00 58 1019.3
20260904123902 75 162 3.0 5.0 0.00 0.00 0.00 58 1019.2
20260904123401 75 142 2.0 4.0 0.00 0.00 0.00 59 1019.2
20260904122903 75 134 2.0 5.0 0.00 0.00 0.00 59 1019.1
20260904122402 75 166 3.0 5.0 0.00 0.00 0.00 57 1019.1
20260904121901 75 184 3.0 7.0 0.00 0.00 0.00 56 1019.1
20260904121402 75 216 4.0 8.0 0.00 0.00 0.00 55 1019.2
20260904120901 76 202 5.0 8.0 0.00 0.00 0.00 55 1019.1
20260904120401 76 194 6.0 13.0 0.00 0.00 0.00 54 1019.1
20260904115901 75 221 7.0 14.0 0.00 0.00 0.00 54 1019.2
20260904115401 75 196 8.0 14.0 0.00 0.00 0.00 55 1019.1
20260904115119 75 225 7.0 13.0 0.00 0.00 0.00 56 1019.2
20260904114401 75 168 6.0 12.0 0.00 0.00 0.00 58 1019.2
20260904113901 75 191 7.0 15.0 0.00 0.00 0.00 58 1019.1
20260904113400 75 208 8.0 15.0 0.00 0.00 0.00 57 1019.1
20260904112901 75 163 7.0 14.0 0.00 0.00 0.00 57 1019.1
20260904112402 76 221 7.0 13.0 0.00 0.00 0.00 56 1019.0
20260904111901 76 163 7.0 13.0 0.00 0.00 0.00 55 1019.0
20260904111402 76 173 9.0 13.0 0.00 0.00 0.00 55 1018.9
20260904110900 76 180 10.0 25.0 0.00 0.00 0.00 55 1019.0
20260904110620 76 167 11.0 25.0 0.00 0.00 0.00 54 1019.0
20260904105902 76 175 9.0 18.0 0.00 0.00 0.00 53 1018.9
20260904105401 77 174 7.0 13.0 0.00 0.00 0.00 51 1018.9
20260904104859 77 150 5.0 12.0 0.00 0.00 0.00 51 1018.7
20260904104359 77 72 2.0 7.0 0.00 0.00 0.00 51 1018.6
20260904103857 77 72 3.0 14.0 0.00 0.00 0.00 51 1018.4
20260904103625 77 105 3.0 14.0 0.00 0.00 0.00 51 1018.6
20260904102857 77 238 2.0 9.0 0.00 0.00 0.00 51 1018.7
20260904102355 77 153 3.0 7.0 0.00 0.00 0.00 51 1018.8
20260904102117 77 93 4.0 10.0 0.00 0.00 0.00 51 1018.9
20260904101353 77 42 4.0 10.0 0.00 0.00 0.00 49 1018.8
20260904100853 78 325 5.0 12.0 0.00 0.00 0.00 50 1018.7
20260904100351 78 275 6.0 15.0 0.00 0.00 0.00 49 1018.4
20260904095850 77 228 6.0 15.0 0.00 0.00 0.00 49 1018.3
20260904095349 76 146 6.0 10.0 0.00 0.00 0.00 51 1018.8
20260904094850 76 242 5.0 11.0 0.00 0.00 0.00 52 1018.4
20260904094350 76 254 3.0 11.0 0.00 0.00 0.00 53 1018.4
20260904093850 76 178 2.0 7.0 0.00 0.00 0.00 54 1018.6
20260904093343 76 323 3.0 7.0 0.00 0.00 0.00 54 1018.6
20260904092831 75 36 2.0 7.0 0.00 0.00 0.00 55 1018.7
20260904092558 75 314 5.0 10.0 0.00 0.00 0.00 55 1018.7
20260904092049 76 191 7.0 16.0 0.00 0.00 0.00 55 1018.7
20260904091330 76 190 6.0 16.0 0.00 0.00 0.00 54 1018.7
20260904090830 76 241 6.0 9.0 0.00 0.00 0.00 52 1018.8
20260904090550 76 161 5.0 9.0 0.00 0.00 0.00 52 1018.9
20260904085829 76 160 5.0 8.0 0.00 0.00 0.00 52 1018.8
20260904085330 76 144 5.0 8.0 0.00 0.00 0.00 52 1018.9
20260904084829 76 134 6.0 10.0 0.00 0.00 0.00 53 1018.8
20260904084330 76 147 4.0 10.0 0.00 0.00 0.00 53 1018.9
20260904083829 77 130 3.0 7.0 0.00 0.00 0.00 52 1018.9
20260904083329 76 109 4.0 7.0 0.00 0.00 0.00 52 1019.0
20260904082829 76 123 5.0 8.0 0.00 0.00 0.00 52 1019.0
20260904082330 76 142 5.0 8.0 0.00 0.00 0.00 52 1019.0
20260904082047 76 146 5.0 13.0 0.00 0.00 0.00 53 1019.0
20260904081330 76 119 6.0 13.0 0.00 0.00 0.00 53 1019.0
20260904081055 76 98 6.0 13.0 0.00 0.00 0.00 54 1019.1
20260904080330 76 140 7.0 13.0 0.00 0.00 0.00 54 1019.1
20260904075830 76 228 8.0 21.0 0.00 0.00 0.00 54 1019.1
20260904075329 76 147 9.0 21.0 0.00 0.00 0.00 54 1019.0
20260904074829 76 192 8.0 19.0 0.00 0.00 0.00 52 1019.1
20260904074330 76 146 8.0 17.0 0.00 0.00 0.00 53 1019.0
20260904073829 76 153 7.0 17.0 0.00 0.00 0.00 53 1019.2
20260904073329 76 149 8.0 17.0 0.00 0.00 0.00 54 1019.2
20260904072829 77 171 9.0 18.0 0.00 0.00 0.00 54 1019.3
20260904072752 78 196 9.0 15.0 0.00 0.00 0.00 54 1019.7
20260904072525 77 202 9.0 18.0 0.00 0.00 0.00 54 1019.5
20260904071330 78 227 10.0 17.0 0.00 0.00 0.00 55 1019.8
20260904071056 78 254 10.0 17.0 0.00 0.00 0.00 53 1019.6
20260904070329 79 244 10.0 19.0 0.00 0.00 0.00 54 1019.7
20260904070051 79 234 10.0 19.0 0.00 0.00 0.00 54 1019.6
20260904065330 79 186 9.0 17.0 0.00 0.00 0.00 54 1019.6
20260904064829 79 213 10.0 17.0 0.00 0.00 0.00 53 1019.5
20260904064329 80 219 10.0 17.0 0.00 0.00 0.00 52 1019.3
20260904064050 80 227 7.0 17.0 0.00 0.00 0.00 51 1019.3
20260904063329 80 180 6.0 15.0 0.00 0.00 0.00 50 1019.2
20260904062830 79 167 7.0 13.0 0.00 0.00 0.00 49 1019.3
20260904062329 79 193 8.0 14.0 0.00 0.00 0.00 50 1019.2
20260904061831 79 147 9.0 15.0 0.00 0.00 0.00 50 1019.1
20260904061329 80 170 9.0 15.0 0.00 0.00 0.00 49 1019.1
20260904061046 80 173 8.0 13.0 0.00 0.00 0.00 49 1019.0
20260904060329 80 186 8.0 14.0 0.00 0.00 0.00 48 1019.0
20260904055829 80 158 7.0 14.0 0.00 0.00 0.00 48 1018.8
20260904055331 80 232 7.0 12.0 0.00 0.00 0.00 48 1018.8
20260904054830 80 186 9.0 17.0 0.00 0.00 0.00 48 1018.7
20260904054329 80 176 10.0 17.0 0.00 0.00 0.00 48 1018.7
20260904054053 80 177 9.0 18.0 0.00 0.00 0.00 47 1018.6
20260904053329 80 166 8.0 18.0 0.00 0.00 0.00 48 1018.6
20260904053307 81 177 10.0 19.0 0.00 0.00 0.00 48 1018.6
20260904052328 81 163 10.0 19.0 0.00 0.00 0.00 48 1018.6
20260904051830 81 205 11.0 20.0 0.00 0.00 0.00 48 1018.4
20260904051329 82 163 11.0 20.0 0.00 0.00 0.00 47 1018.2
20260904050829 82 157 11.0 19.0 0.00 0.00 0.00 46 1018.0
20260904050329 83 158 13.0 23.0 0.00 0.00 0.00 44 1018.0
20260904045829 85 155 9.0 23.0 0.00 0.00 0.00 42 1018.0
20260904045329 88 146 2.0 17.0 0.00 0.00 0.00 34 1017.8
20260904044829 87 111 0.0 5.0 0.00 0.00 0.00 33 1017.4
20260904044328 88 77 1.0 8.0 0.00 0.00 0.00 33 1017.2
20260904043829 88 281 2.0 9.0 0.00 0.00 0.00 33 1017.1
20260904043329 88 317 2.0 9.0 0.00 0.00 0.00 33 1017.1
20260904042830 88 294 0.0 4.0 0.00 0.00 0.00 33 1017.0
20260904042330 88 299 0.0 0.0 0.00 0.00 0.00 33 1016.9
20260904042057 88 280 0.0 2.0 0.00 0.00 0.00 32 1016.8
20260904041554 88 293 1.0 3.0 0.00 0.00 0.00 32 1016.8
20260904040829 89 253 1.0 3.0 0.00 0.00 0.00 32 1016.9
20260904040330 89 311 3.0 9.0 0.00 0.00 0.00 32 1016.9
20260904035829 89 246 3.0 9.0 0.00 0.00 0.00 32 1016.9
20260904035329 89 223 3.0 8.0 0.00 0.00 0.00 32 1016.9
20260904034830 89 254 5.0 12.0 0.00 0.00 0.00 32 1016.9
20260904034329 89 242 5.0 12.0 0.00 0.00 0.00 32 1016.8
20260904033829 89 288 6.0 14.0 0.00 0.00 0.00 32 1016.8
20260904033329 89 266 7.0 14.0 0.00 0.00 0.00 32 1016.8
20260904032829 89 225 5.0 12.0 0.00 0.00 0.00 31 1016.7
20260904032329 89 256 3.0 8.0 0.00 0.00 0.00 31 1016.8
20260904031830 89 290 2.0 6.0 0.00 0.00 0.00 31 1016.7
20260904031329 89 281 2.0 4.0 0.00 0.00 0.00 31 1016.5
20260904030829 89 279 2.0 4.0 0.00 0.00 0.00 31 1016.5
20260904030329 89 277 2.0 4.0 0.00 0.00 0.00 31 1016.4
20260904030053 89 258 2.0 4.0 0.00 0.00 0.00 31 1016.3
20260904025329 89 286 1.0 4.0 0.00 0.00 0.00 31 1016.1
20260904024829 89 301 2.0 6.0 0.00 0.00 0.00 31 1016.1
20260904024554 90 306 3.0 7.0 0.00 0.00 0.00 30 1016.0
20260904023829 90 288 3.0 8.0 0.00 0.00 0.00 30 1015.9
20260904023330 90 302 3.0 8.0 0.00 0.00 0.00 30 1015.6
20260904023052 90 325 3.0 8.0 0.00 0.00 0.00 30 1015.8
20260904022329 90 315 2.0 6.0 0.00 0.00 0.00 30 1015.8
20260904021829 90 304 2.0 4.0 0.00 0.00 0.00 30 1015.5
20260904021329 90 297 2.0 5.0 0.00 0.00 0.00 30 1015.6
20260904020829 90 314 2.0 5.0 0.00 0.00 0.00 30 1015.5
20260904020329 90 302 3.0 7.0 0.00 0.00 0.00 30 1015.4